Ottumwa, IA

7:32 AM CST on November 19, 2017 (GMT -0600)
Ottumwa Industrial

Weather History for KOTM - October, 2013

Change the Weather History Date:

Saturday, October 26, 2013

  Actual Average Record
Temperature  
Mean Temperature 41 °F 49 °F  
Max Temperature 53 °F 59 °F 88 °F (1940)
Min Temperature 29 °F 38 °F 18 °F (1942)
Degree Days  
Heating Degree Days 24 16  
Month to date heating degree days 328 315  
Since 1 July heating degree days 411 436  
Cooling Degree Days 0 0  
Month to date cooling degree days 33 9  
Year to date cooling degree days 1014 936  
Moisture  
Dew Point 27 °F    
Average Humidity 57    
Maximum Humidity 78    
Minimum Humidity 35    
Precipitation  
Precipitation 0.00 in 0.09 in 1.58 in (1997)
Month to date precipitation 1.81 2.38  
Year to date precipitation 31.42 32.87  
Sea Level Pressure  
Sea Level Pressure 30.08 in    
Wind  
Wind Speed 13 mph (WNW)    
Max Wind Speed 28 mph    
Max Gust Speed 36 mph    
Visibility 10 miles    
Events      
T = Trace of Precipitation, MM = Missing Value Source: NWS Daily Summary

Daily Weather History Graph

Daily Weather History Graph

Search for Another Location

Airport or City:

Trip Planner

Search our weather history database for the weather conditions in past years. The results will help you decide how hot, cold, wet, or windy it might be!

Date:

Astronomy

Oct. 26, 2013 Rise Set
Actual Time 7:34 AM CDT 6:12 PM CDT
Civil Twilight 7:05 AM CDT 6:40 PM CDT
Nautical Twilight 6:33 AM CDT 7:13 PM CDT
Astronomical Twilight 6:01 AM CDT 7:45 PM CDT
Moon No Moon Rise 1:50 PM CDT (10/26)
Length of Visible Light 11h 35m
Length of Day
10h 38m
Waning Gibbous, 53% of the Moon is Illuminated
Oct 26
Waning Gibbous
Oct 26
Last Quarter
Nov 3
New
Nov 9
First Quarter
Nov 17
Full

Hourly Weather History & Observations

Time (CDT) Temp. Windchill Dew Point Humidity Pressure Visibility Wind Dir Wind Speed Gust Speed Precip Events Conditions
12:53 AM 46.0 °F 39.9 °F 24.1 °F 42% 30.05 in 10.0 mi SW 13.8 mph - N/A   Clear
1:53 AM 46.0 °F 39.9 °F 26.1 °F 46% 30.02 in 10.0 mi SW 13.8 mph 21.9 mph N/A   Clear
2:53 AM 46.0 °F 39.3 °F 27.0 °F 47% 30.00 in 10.0 mi WSW 16.1 mph - N/A   Clear
3:53 AM 45.0 °F 38.2 °F 28.9 °F 53% 29.97 in 10.0 mi SW 15.0 mph 24.2 mph N/A   Clear
4:53 AM 46.0 °F 39.6 °F 32.0 °F 58% 29.96 in 10.0 mi WSW 15.0 mph 25.3 mph N/A   Clear
5:53 AM 45.0 °F 38.5 °F 33.1 °F 63% 29.98 in 10.0 mi West 13.8 mph - N/A   Clear
6:53 AM 43.0 °F 36.4 °F 33.1 °F 68% 29.99 in 10.0 mi West 12.7 mph - N/A   Clear
7:53 AM 41.0 °F 35.2 °F 33.1 °F 73% 30.01 in 10.0 mi West 9.2 mph - N/A   Clear
8:53 AM 45.0 °F 38.9 °F 34.0 °F 65% 30.04 in 10.0 mi WNW 12.7 mph - N/A   Clear
9:53 AM 48.0 °F - 30.9 °F 52% 30.06 in 10.0 mi NNW 21.9 mph 29.9 mph N/A   Clear
10:53 AM 50.0 °F - 28.0 °F 43% 30.08 in 10.0 mi NNW 19.6 mph 29.9 mph N/A   Clear
11:53 AM 51.1 °F - 24.1 °F 35% 30.11 in 10.0 mi NW 19.6 mph 28.8 mph N/A   Clear
12:53 PM 50.0 °F - 26.1 °F 39% 30.12 in 10.0 mi NW 21.9 mph - N/A   Clear
1:53 PM 51.1 °F - 27.0 °F 39% 30.12 in 10.0 mi NNW 20.7 mph 26.5 mph N/A   Clear
2:53 PM 52.0 °F - 28.0 °F 40% 30.11 in 10.0 mi NW 15.0 mph 26.5 mph N/A   Clear
3:53 PM 53.1 °F - 26.1 °F 35% 30.11 in 10.0 mi NNW 16.1 mph 24.2 mph N/A   Clear
4:53 PM 51.1 °F - 25.0 °F 36% 30.12 in 10.0 mi NW 16.1 mph 24.2 mph N/A   Clear
5:53 PM 48.0 °F - 25.0 °F 41% 30.12 in 10.0 mi NW 10.4 mph - N/A   Clear
6:53 PM 39.9 °F 34.5 °F 25.0 °F 55% 30.14 in 10.0 mi NW 8.1 mph - N/A   Clear
7:53 PM 39.0 °F 34.8 °F 25.0 °F 57% 30.15 in 10.0 mi NW 5.8 mph - N/A   Clear
8:53 PM 34.0 °F 28.8 °F 24.1 °F 67% 30.15 in 10.0 mi WNW 5.8 mph - N/A   Clear
9:53 PM 30.9 °F 26.2 °F 24.1 °F 76% 30.17 in 10.0 mi West 4.6 mph - N/A   Clear
10:53 PM 34.0 °F 31.0 °F 25.0 °F 70% 30.17 in 10.0 mi WNW 3.5 mph - N/A   Clear
11:53 PM 30.0 °F - 24.1 °F 79% 30.15 in 10.0 mi Calm Calm - N/A   Clear